Location: Unspecified
(0.0000°N, 0.0000°E)
Time: 09:12:07
(UTC+00:00)

Explorer 11/Cluster Stage 4 - Pass Details

Date: 22 July 2020
Orbit: 467 x 1259 km, 28.8° (Epoch: 03 August)

Event Time Altitude Azimuth Distance (km) Brightness Sun altitude
Rises 02:07:10 0° 230° (SW) 3,464 - -54.2°
Reaches altitude 10° 02:10:07 10° 223° (SW) 2,379 - -53.6°
Maximum altitude 02:15:23 43° 152° (SSE) 945 - -52.6°
Drops below altitude 10° 02:19:37 10° 80° (E) 1,916 - -51.7°
Sets 02:21:47 0° 73° (ENE) 2,721 - -51.2°
